COSMOS 2499 DEB

Satellite information

Favourite Embed

Satellite Type and Status

DEBRISIN ORBIT

Key statistics

Satellite COSMOS 2499 DEB at a glance.

Uptime

4065

Days in orbit

Revolutions

≈ 12.9

Per day

Orbit

LEO

Low Earth Orbit

Inclination

82.4

Latest

Satellite identification and parameters

Extended collection of information and parameters for COSMOS 2499 DEB.

Object identification

Identified? True

Debris? True

Object name: COSMOS 2499 DEB

International designator: 2014-028BK

Object number (NORAD): 56576

Object ID (CCSDS): 56576

Country: COMMONWEALTH OF INDEPENDENT STATES (CIS)

Current information (Y/N): Y

RCS size: SMALL

Orbital parameters

Period: 111.868 minutes

Inclination: 82.3908 deg

SMA: 7690.657 km

Apoapsis: 1544.951 km

Periapsis: 1080.094 km

RAAN: 122.2481 deg

Eccentricy: 0.0302222

Argument of periapsis: 66.9485 deg

Mean anomaly: 296.3183 deg

Mean motion: 12.87234162 rev/day

Mean motion (dot): 0.00007652 rev/day2

B* drag term: 0.024887 1/REarth

Two-line elements (TLE)

Creation date: July 8, 2025, 5:26 p.m.

Reference frame: TEME

Reference center: EARTH

Epoch: July 8, 2025, 2:06 a.m. UTC

TLE line 0: 0 COSMOS 2499 DEB

TLE line 1: 1 56576U 14028BK 25189.08789021 .00007652 00000-0 24887-1 0 9994

TLE line 2: 2 56576 82.3908 122.2481 0302222 66.9485 296.3183 12.87234162115498

Live tracking on map

Real-time ground track for satellite COSMOS 2499 DEB.

In-orbit conjunctions

A list of the most updated potential collisions computed for object COSMOS 2499 DEB.

Target Orbit TCA Probability of collision Miss distance Type
COSMOS 1797 LEO 2025-06-18 03:54:42 0.0005473243 251.0 (m) PAYLOAD

Associated space launch

Classified payload for Russia

COSMOS 2499 DEB was lifted into orbit during the mission ‘Rokot / Briz-KM | 3x Strela-3M (Kosmos 2496, Kosmos 2497, Kosmos 2498) & Kosmos 2499’, on board a Rokot/Briz-KM space rocket.

The launch took place on May 23, 2014, 5:27 a.m. from 133/3 (133L).

For more information about the launch, click the button.

Launch to space Rokot / Briz-KM | 3x Strela-3M (Kosmos 2496, Kosmos 2497, Kosmos 2498) & Kosmos 2499
Rokot / Briz-KM | 3x Strela-3M (Kosmos 2496, Kosmos 2497, Kosmos 2498) & Kosmos 2499

Agency: N/A

Status: Launch Successful

Launch date: May 23, 2014, 5:27 a.m. UTC

Rocket: Rokot/Briz-KM

Launch pad: 133/3 (133L)

Location: Plesetsk Cosmodrome, Russian Federation

...

Latest news about this satellite

There are no fresh news available about this satellite. Check back as we update our databases every day.


Newsletter sign-up

Weekly statistics, charts and insights to help you stay on top of the space industry.